COSMOS 2491 DEB, 45172

Orbit data source: Space-Track

COSMOS 2491 DEB, 45172 is space debris in LEO originally from a launch on Wed, 25 Dec 2013 UTC launched from the Plesetsk Missile And Space Complex (PKMTR). Debris objects in space refer to the collection of defunct objects orbiting the Earth. Examples of debris include non-operational satellites, rocket bodies, and fragments generated from explosions, collisions, or faulty payload assembly.

Loading next visibility...
Identifier
45172, 2013-076AD
Orbit
LEO
Country
Flag of CISCIS
Related business
Manufacturer
TsNIIKhM
Mission
Spacecraft
Bus & Motor
Unknown
Mass
Unknown
Launch date (UTC)
2013-12-25 (12 years ago)
Launch vehicle
Unknown
Launch site
Plesetsk Missile And Space Complex (PKMTR)
Object type
Payload
Rocket body
Debris
Shape & HBR
Unknown shape, 0.1 m
Radar Cross Section
Small (<0.1 m²)

Expand to show TLE details & history
Last TLE update: 2 days ago

TLE from 2 days ago
0 COSMOS 2491 DEB
1 45172U 13076AD  26035.18032345  .00002001  00000-0  10117-1 0  9992
2 45172  82.4680 197.3605 0098143 112.7776 248.3723 12.67959673277422
Epoch: 2026-02-04T04:19Z
TLE epoch observation values (Epoch: 2026-02-04T04:19:39.946Z)
Latitude
-0.00004°
Longitude
-1.90655°
Altitude
1,421.747 km
Speed
7.137 km/s
True Right ascension
13h 09m 26s
True Declination
0° 00' 00"
Sunlit
Object was in daylight at epoch
Visualization orbit readout
Latitude
Unknown
Longitude
Unknown
Altitude
Unknown
Speed
Unknown
Apparent Right ascension
Unknown
Apparent Declination
Unknown
Sunlit
N/A
Visualization observer readout
Local Sidereal Time
10:18:30
Azimuth
Unknown
Elevation
Unknown
Doppler factor
Unknown
Orbital elements
Apogee altitude
1,463.794 km
Perigee altitude
1,311.364 km
Semi-major axis
7,765.716 km
Eccentricity
0.00981
Inclination
82.468°
RAAN
197.3605°
Arg. of periapsis
112.7776°
True anomaly
247.3316°
Mean anomaly
248.3723°
Eccentric anomaly
247.85148°
Mean motion
3.17155 °/min
Orbital period
113.51 mins
BSTAR
0.010117
Loading maneuver chart data...
Computing Atmospheric mass density...
Loading historical data...
Loading historical data...
Loading historical data...
Loading historical data...
Loading historical data...
Loading historical data...
Loading historical data...

Documentation

Showing up to 5 results
|